KHYW

Details ICAO KHYW
Name Conway Horry Co
Region United States
Timezone America/New_York (UTC-4.0)
Plans Departing 2
Arriving 3
Stats Elevation 34 ft / 10 m (AMSL)
Location 33.828485° -79.122178°
Runways 1
Magnetic Variation 8.643° W
Sunrise 2018-05-25 10:10:53 UTC / 2018-05-25 06:10:53 Local
Sunset 2018-05-26 00:18:53 UTC / 2018-05-25 20:18:53 Local
Advertisement - Login to hide

Runways

ID Width Length Bearing (true) Bearing (mag) Surface Threshold Offset Overrun Length
04 75 ft / 23 m 4,407 ft / 1,343 m 31.70° 40.34° Asphalt 0 ft / 0 m 0 ft / 0 m
22 75 ft / 23 m 4,407 ft / 1,343 m 211.70° 220.34° Asphalt 0 ft / 0 m 0 ft / 0 m

Map

Weather


0- 5 10 15 20 25 30 35+ Temperature / ° C

Clouds and Precipitation
Forecast for 2018-05-25 06:00 UTC. Updated 3 hours ago

Ground ~20,000 ft ~40,000 ft Winds

METAR

KHYW 250755Z AUTO 00000KT 1/2SM FG OVC001 20/20 A3010 RMK AO2

TAF

Not found

Frequencies

Unicom 122.70 MHz CTAF/UNICOM
Approach 127.40 MHz MYRTLE BEACH APP/DEP
Warning: Do not use this data for real-world aviation or navigation. No guarantee of current accuracy is given.